OneWeb SL0272

operational
NORAD ID: 48990 Int'l Des: 2021-060 Owner: ONEWEBN Country: UK Constellation: oneweb
LEOCIRCULARPOLARONEWEB_TYPE

About OneWeb SL0272

Description loading...

Live Position

Loading 3D Globe...

Upcoming Passes

Altitude History

Altitude vs Time

uPlot chart will show altitude changes over time

Two-Line Element Set

1 48990U 21060Z 25353.46018843 .00000045 00000-0 84099-4 0 9994
2 48990 87.9042 264.5736 0001948 73.1450 286.9894 13.16596961215963
Epoch: Dec 19, 2025 • Age: 25 hours

Current Status

Altitude 1225.3 km
Velocity 7.24 km/s
Sub-Earth Point -69.21°S, 179.71°W
Launch Date Jul 1, 2021
Age 4.4 years
Type internet

Technical Details

Classification Payload
Mass 148.00 kg
Dry Mass 140.00 kg
Total Mass 148.00 kg
Length 1.30 m
Diameter 1.00 m
Span 5.00 m
Shape Trapezoid+2 pan
Manufacturer ONEWUS
Bus Type ARROW
Phase Status In Orbit
Owner/State ONEWEBN/UK

Large Constellations

Loading constellations...